Location: Bonn
(50.7330°N, 7.1000°E)
Time: 18:24:16
(UTC+02:00)

Cosmos 1933 Rocket - Visible Passes

Search period start: 28 July 2014 00:00
Search period end: 07 August 2014 00:00
Orbit: 608 x 632 km, 82.5° (Epoch: 27 July)

Date Brightness Start Highest point End Pass type
(mag) Time Alt. Az. Time Alt. Az. Time Alt. Az.
28 Jul 6.1 02:54:57 10° NNE 02:58:02 18° ENE 03:01:07 10° ESE visible
28 Jul 3.7 04:31:59 10° NNW 04:36:21 61° W 04:40:43 10° S visible
29 Jul 5.4 03:12:10 10° N 03:16:03 29° ENE 03:19:56 10° SE visible
29 Jul 4.3 04:49:58 10° NNW 04:53:59 35° W 04:58:01 10° SSW visible
30 Jul 4.4 03:29:39 10° N 03:33:58 48° ENE 03:38:16 10° SSE visible
30 Jul 5.0 05:08:14 10° NW 05:11:32 21° W 05:14:51 10° SW visible
31 Jul 6.3 02:11:18 10° NE 02:13:08 12° ENE 02:14:58 10° E visible
31 Jul 3.6 03:47:20 10° N 03:51:47 84° E 03:55:37 14° SSE visible
01 Aug 5.9 02:27:59 10° NNE 02:31:15 20° ENE 02:34:30 10° ESE visible
01 Aug 3.7 04:05:09 10° NNW 04:09:31 56° W 04:12:43 18° SSW visible
02 Aug 5.2 02:45:16 10° N 02:49:15 31° ENE 02:52:44 13° SE visible
02 Aug 4.5 04:23:11 10° NNW 04:27:08 32° W 04:29:52 17° SW visible
03 Aug 4.2 03:02:47 10° N 03:07:09 53° ENE 03:09:55 21° SE visible
03 Aug 5.1 04:41:30 10° NW 04:44:40 20° W 04:47:04 13° WSW visible
04 Aug 6.2 01:44:12 10° NNE 01:46:22 13° ENE 01:48:31 10° E visible
04 Aug 3.5 03:20:29 10° N 03:24:57 89° W 03:27:08 30° S visible
04 Aug 5.7 05:00:38 10° WNW 05:02:06 12° W 05:03:35 10° W visible
05 Aug 5.7 02:01:03 10° NNE 02:04:27 21° ENE 02:07:14 13° ESE visible
05 Aug 3.8 03:38:20 10° NNW 03:42:40 51° W 03:44:23 32° SSW visible
06 Aug 4.9 02:18:22 10° N 02:22:27 34° ENE 02:24:31 22° ESE visible
06 Aug 4.6 03:56:23 10° NNW 04:00:17 30° W 04:01:40 25° WSW visible
